Regional Weather Roundup
Issued by NWS Northern Indiana

Home | Current Version | Previous Version | Text Only | Print | Product List | Glossary On
Versions: 1 2 3 4 5 6 7 8 9 10 11 12 13 14 15 16 17 18 19 20 21 22 23 24 25 26 27 28 29 30 31 32 33 34 35 36 37 38 39 40 41 42 43 44 45 46 47 48 49 50
000
ASUS43 KIWX 012210
RWRIWX

KIWX WEATHER ROUNDUP
NATIONAL WEATHER SERVICE NORTHERN INDIANA
600 PM EDT WED JUL 01 2015

NOTE: "FAIR" INDICATES FEW OR NO CLOUDS BELOW 12,000 FEET WITH NO
SIGNIFICANT WEATHER AND/OR OBSTRUCTIONS TO VISIBILITY.

* THESE STATIONS ARE NOT UNDER NWS QUALITY CONTROL. THEY ALSO MAY NOT
  REPORT WEATHER SUCH AS PRECIPITATION OR FOG.

INZ001>027-012300-
NORTHERN INDIANA

CITY           SKY/WX    TMP DP  RH WIND       PRES   REMARKS
GARY*          PTSUNNY   63  52  67 NE9       29.97F
VALPARAISO     MOSUNNY   65  50  58 N7        29.96S
MICHIGAN CITY* MOSUNNY   59  50  72 NE3       29.97F
LAPORTE*       MOSUNNY   64  53  68 N7G16     29.97S
KNOX*          PTSUNNY   66  50  55 N8        29.95S
SOUTH BEND     MOSUNNY   64  52  64 NW10      29.95F
ELKHART*       SUNNY     68  50  52 NW9       29.95R
GOSHEN         SUNNY     69  54  58 NW9       29.92S
MONTICELLO*    PTSUNNY   73  62  68 N9        29.92S
LOGANSPORT*    MOSUNNY   72  55  56 N5G16     29.92F
ROCHESTER*     PTSUNNY   72  59  64 NW8       29.94S
WARSAW*          N/A     70  55  60 NW10      29.93S
ANGOLA*        MOSUNNY   73  66  78 W9        29.91S
FORT WAYNE     PTSUNNY   75  58  55 NW8       29.92S
HUNTINGTON*    MOSUNNY   73  58  58 NW3       29.92S
PERU/GRISSOM   PTSUNNY   74  62  66 N5        29.91S
MARION*        MOSUNNY   74  60  61 N5        29.92F

$$
INZ028>050-012300-
CENTRAL INDIANA

CITY           SKY/WX    TMP DP  RH WIND       PRES   REMARKS
LAFAYETTE      CLOUDY    72  63  73 NE6       29.90S
KOKOMO*        MOSUNNY   75  63  64 N5        29.90F
MUNCIE*        CLOUDY    75  61  61 N7        29.91S
INDIANAPOLIS   CLOUDY    75  60  59 CALM      29.88F

$$
MIZ043>046-050>051-056>058-064>065-071>073-077>080-012300-
SOUTHWEST LOWER MICHIGAN

CITY           SKY/WX    TMP DP  RH WIND       PRES   REMARKS
BATTLE CREEK   PTSUNNY   69  53  56 NW10      29.93S
BENTON HARBOR  CLOUDY    59  51  75 MISG      29.97S
COLDWATER*     MOSUNNY   69  45  40 W7        29.92S
HILLSDALE*     MOSUNNY   70  52  51 W6        29.91F
HOLLAND        PTSUNNY   61  51  70 W8        29.97S
GRAND RAPIDS   PTSUNNY   67  52  58 NW9       29.93S
KALAMAZOO      MOSUNNY   65  52  62 NW12      29.94S
STURGIS*       SUNNY     70  50  49 W8        29.92S
THREE RIVERS*  FAIR      67  52  59 NW10      29.93S

$$
OHZ001>008-015>018-024>025-012300-
NORTHWEST OHIO

CITY           SKY/WX    TMP DP  RH WIND       PRES   REMARKS
DEFIANCE       MOSUNNY   75  56  51 NW7       29.90F
FINDLAY        MOSUNNY   76  57  51 NW6       29.89F
TOLEDO EXPRESS MOSUNNY   73  55  53 N6        29.89F
TOLEDO METCALF MOSUNNY   75  56  51 W6        29.90F
LIMA           PTSUNNY   73  57  57 W5        29.90F

$$
AND FOR LAKE MICHIGAN COASTAL AND OPEN LAKE BUOY OBSERVATIONS

STATION/POSITION TEMP    WIND        PRES    VSBY  WAVE
                 AIR SEA DIR/SP/G                  HT/PER
                 (F)     (DEG/KT/KT) (MB)    (MI)  (FT/S)
CALUMET HARBOR    59      30/  9/ 11   N/A
MICHIGAN CITY     57      10/ 12/ 13   N/A
BURNS HARBOR      60      50/ 12/ 14 1015.6S
SAINT JOSEPH      58     360/ 11/ 16   N/A
4 MI NW BRIDGMAN  58 63                N/A           3/ 4
MICHIGAN CITY     59 65   60/ 10/ 14   N/A           3/ 5

$$
&&


USA.gov is the U.S. government's official web portal to all federal, state and local government web resources and services.